Location: Freemans Gardens
(41.6414°N, 83.6077°W)
Time: 21:59:33
(UTC+00:00)

Meteor 1-11 - Pass Details

Date: 29 October 2020
Orbit: 842 x 886 km, 81.2° (Epoch: 25 November)

Event Time Altitude Azimuth Distance (km) Brightness Sun altitude
Rises 22:52:54 0° 349° (N) 3,457 7.4 -4.6°
Reaches altitude 10° 22:55:19 10° 349° (N) 2,523 6.7 -5.0°
Maximum altitude 23:01:05 86° 261° (W) 884 4.4 -6.0°
Drops below altitude 10° 23:06:51 10° 174° (S) 2,531 6.8 -7.1°
Sets 23:09:17 0° 174° (S) 3,469 7.5 -7.5°
